Weather History for Dalhart, TX

Change the Weather History Date:

Wednesday, November 16, 2011

  Actual Average Record
Temperature  
Mean Temperature 34 °F 44 °F  
Max Temperature 46 °F 60 °F 84 °F (1967)
Min Temperature 22 °F 28 °F 8 °F (1955)
Degree Days  
Heating Degree Days 31 21  
Month to date heating degree days 304 287  
Since 1 July heating degree days 572 647  
Cooling Degree Days 0 0  
Month to date cooling degree days 0 0  
Year to date cooling degree days 1788 1138  
Moisture  
Dew Point 17 °F    
Average Humidity 49    
Maximum Humidity 72    
Minimum Humidity 25    
Precipitation  
Precipitation 0.00 in 0.01 in 1.12 in (1991)
Month to date precipitation 0.04 0.38  
Year to date precipitation 5.05 16.85  
Snow  
Snow 0.00 in 0.00 in 0.70 in (1980)
Month to date snowfall T 0.5  
Since 1 July snowfall T 1.1  
Since 1 September snowfall T 1.1  
Snow Depth 0.00 in    
Sea Level Pressure  
Sea Level Pressure 30.19 in    
Wind  
Wind Speed 9 mph (NE)    
Max Wind Speed 17 mph    
Max Gust Speed 22 mph    
Visibility 10 miles    
Events      
T = Trace of Precipitation, MM = Missing Value Source: NWS Daily Summary

Daily Weather History Graph

Daily Weather History Graph

Search for Another Location

Airport:

Trip Planner

Search our weather history database for the weather conditions in past years. The results will help you decide how hot, cold, wet, or windy it might be!

Date:

Astronomy

Nov. 16, 2011 Rise Set
Actual Time 7:27 AM CST 5:42 PM CST
Civil Twilight 7:00 AM CST 6:09 PM CST
Nautical Twilight 6:29 AM CST 6:40 PM CST
Astronomical Twilight 5:58 AM CST 7:10 PM CST
Moon 10:56 PM CST (11/16) 12:05 PM CST (11/16)
Length of Visible Light 11h 09m
Length of Day
10h 14m
Waning Gibbous, 70% of the Moon is Illuminated
Nov 16
Waning Gibbous
Nov 18
Last Quarter
Nov 25
New
Dec 2
First Quarter
Dec 10
Full

Hourly Weather History & Observations

Time (CST) Temp. Windchill Dew Point Humidity Pressure Visibility Wind Dir Wind Speed Gust Speed Precip Events Conditions
12:53 AM 37.0 °F 31.0 °F 19.9 °F 50% 29.89 in 10.0 mi SE 8.1 mph - N/A   Clear
1:53 AM 36.0 °F - 19.9 °F 52% 29.89 in 10.0 mi Calm Calm - N/A   Clear
2:53 AM 35.1 °F 28.6 °F 21.0 °F 57% 29.91 in 10.0 mi North 8.1 mph - N/A   Clear
3:53 AM 32.0 °F 24.8 °F 19.9 °F 61% 29.94 in 10.0 mi NNW 8.1 mph - N/A   Clear
4:53 AM 33.1 °F 25.5 °F 21.0 °F 61% 29.96 in 10.0 mi North 9.2 mph - N/A   Clear
5:53 AM 30.0 °F 21.7 °F 21.9 °F 72% 30.03 in 10.0 mi North 9.2 mph - N/A   Clear
6:53 AM 32.0 °F 22.1 °F 24.1 °F 73% 30.07 in 10.0 mi NNE 13.8 mph - N/A   Clear
7:53 AM 33.1 °F 23.9 °F 25.0 °F 72% 30.11 in 10.0 mi NNE 12.7 mph - N/A   Mostly Cloudy
8:53 AM 35.1 °F 26.4 °F 24.1 °F 64% 30.14 in 10.0 mi NE 12.7 mph 20.7 mph N/A   Overcast
9:53 AM 37.4 °F 29.3 °F 23.0 °F 56% 30.19 in 10.0 mi NE 12.7 mph - N/A   Partly Cloudy
10:53 AM 39.0 °F 31.4 °F 21.0 °F 49% 30.22 in 10.0 mi NNE 12.7 mph - N/A   Clear
11:53 AM 41.0 °F 33.5 °F 21.0 °F 45% 30.23 in 10.0 mi NE 13.8 mph - N/A   Clear
12:53 PM 43.0 °F 36.8 °F 19.0 °F 38% 30.21 in 10.0 mi NE 11.5 mph - N/A   Clear
1:53 PM 44.1 °F 38.1 °F 17.1 °F 34% 30.21 in 10.0 mi ENE 11.5 mph - N/A   Clear
2:53 PM 45.0 °F 39.3 °F 15.1 °F 30% 30.22 in 10.0 mi ENE 11.5 mph 20.7 mph N/A   Clear
3:53 PM 46.0 °F 40.2 °F 12.9 °F 26% 30.24 in 10.0 mi NE 12.7 mph - N/A   Clear
4:53 PM 43.0 °F 37.7 °F 10.9 °F 27% 30.27 in 10.0 mi ENE 9.2 mph - N/A   Clear
5:53 PM 37.0 °F 31.6 °F 10.9 °F 34% 30.32 in 10.0 mi ENE 6.9 mph - N/A   Clear
6:53 PM 32.0 °F 24.2 °F 10.9 °F 42% 30.36 in 10.0 mi ENE 9.2 mph - N/A   Clear
7:53 PM 30.0 °F 21.7 °F 10.9 °F 45% 30.39 in 10.0 mi ENE 9.2 mph - N/A   Clear
8:53 PM 28.0 °F 19.3 °F 12.0 °F 51% 30.41 in 10.0 mi East 9.2 mph - N/A   Clear
9:53 PM 27.0 °F 20.5 °F 10.9 °F 51% 30.43 in 10.0 mi East 5.8 mph - N/A   Clear
10:53 PM 24.1 °F 19.7 °F 10.9 °F 57% 30.45 in 10.0 mi SSE 3.5 mph - N/A   Clear
11:53 PM 25.0 °F 18.1 °F 12.9 °F 60% 30.43 in 10.0 mi SE 5.8 mph - N/A   Clear